Wind_Speed
16 17 17 17 17 17 17 18 19 21 21 16 10 6 3 3 1 3 17 16 1 8 6 2 3 3 1 0 0 1 1 1 1 2 2 2 1 2 2 0 1 0 1 0 0 1 1 1 1 1 1 2 0 1 1 1 2 1 1 2 1 1 2 2 4 4 3 5 4 2 2 4 5 3 3 2 2 1 3 4 2 1 2 2 2 2 4
16 16 15 15 15 16 16 17 17 18 19 16 11 4 3 2 2 3 16 14 3 5 3 1 2 2 2 2 2 2 1 1 1 2 2 2 1 2 1 0 1 1 1 1 0 1 1 1 2 2 1 1 1 2 1 2 1 2 1 1 2 2 1 2 3 5 6 6 5 4 4 4 3 2 3 3 3 4 1 1 2 1 1 2 2 3 3
15 14 14 15 15 15 15 16 16 16 16 15 9 3 3 2 0 3 12 17 10 4 3 5 3 0 1 4 3 3 2 1 1 1 1 1 1 1 1 0 0 1 1 2 2 2 2 1 2 3 1 2 1 0 2 3 1 0 2 3 1 0 1 2 2 1 3 3 3 4 4 3 2 2 5 5 4 4 2 0 3 1 1 1 2 4 2
14 14 15 15 15 16 15 15 15 14 15 12 7 4 2 2 2 3 7 11 9 3 1 3 4 3 2 3 2 3 2 1 1 1 1 2 1 1 2 1 1 2 3 4 3 3 3 1 2 4 3 4 2 2 3 2 1 2 3 2 2 2 1 2 4 4 3 4 4 4 2 2 2 4 7 7 4 3 3 3 2 1 1 3 2 3 2
15 15 15 15 15 15 15 15 15 14 14 11 5 5 4 3 2 2 2 4 5 4 4 5 3 2 3 2 2 3 3 3 2 1 1 1 1 1 2 3 4 3 4 4 3 4 4 3 3 2 3 4 4 3 1 1 4 4 1 1 3 4 3 3 4 2 2 3 3 4 3 3 2 3 5 7 7 6 6 4 0 2 2 3 3 2 2
15 15 16 16 15 16 16 15 15 13 13 11 5 3 4 3 2 1 0 1 2 3 4 4 5 5 3 2 1 3 4 4 2 2 2 2 2 2 3 6 6 3 2 2 2 5 5 3 2 1 2 4 5 5 2 1 5 5 2 2 2 5 2 2 3 1 4 3 3 3 4 4 3 3 4 6 7 7 6 2 2 2 1 4 2 1 4
16 16 16 16 15 16 16 16 16 13 10 10 8 4 2 3 3 1 2 2 2 1 3 2 5 6 4 3 3 4 5 5 2 2 3 4 4 4 3 6 7 4 2 2 2 3 3 2 2 1 2 3 3 4 3 3 4 5 4 3 1 4 1 1 2 2 4 4 4 3 4 4 3 4 4 4 5 5 4 0 1 0 4 5 2 4 5
17 17 16 16 16 16 16 16 16 13 9 8 8 5 2 2 3 0 3 4 1 2 3 2 4 5 4 3 3 2 4 5 3 2 3 4 5 5 4 5 6 3 3 4 3 1 1 2 3 1 1 3 2 2 1 3 5 6 4 3 2 2 2 1 3 2 4 3 4 4 3 4 4 4 4 4 4 4 3 2 2 2 4 4 4 6 4
17 17 16 16 16 16 16 16 16 14 10 7 6 5 3 3 2 2 5 3 4 3 3 2 4 4 4 3 2 2 3 3 1 1 2 1 1 2 2 4 3 2 5 6 2 3 2 3 4 3 2 2 1 1 0 1 4 6 4 3 4 4 2 2 4 2 4 3 3 2 2 3 3 3 5 5 4 2 2 2 2 2 5 6 6 5 3
17 17 17 17 17 17 17 17 16 15 12 8 5 3 2 3 1 2 5 3 3 3 3 3 4 2 2 2 2 2 2 3 1 1 1 1 1 1 2 2 0 3 6 5 2 3 2 3 2 2 3 3 3 2 2 2 1 2 2 2 2 2 2 2 4 1 3 3 2 1 2 4 3 3 4 4 2 2 3 4 4 3 3 3 4 3 2
18 18 18 18 18 18 18 18 16 15 14 11 7 4 2 2 1 2 5 4 3 4 3 4 4 2 1 2 2 1 3 4 2 3 1 1 1 1 1 1 3 3 3 2 0 1 1 2 2 4 5 6 5 4 4 6 5 2 1 1 1 2 4 2 2 1 3 5 3 2 3 3 3 1 2 4 2 2 5 8 7 3 1 1 2 3 5
19 19 19 18 19 18 18 19 17 16 17 14 9 7 5 3 2 2 5 5 2 5 4 3 2 1 2 4 2 1 2 3 1 1 1 1 2 3 3 3 4 2 0 1 2 2 2 2 3 4 5 4 4 5 8 10 8 4 2 3 2 4 4 1 1 2 2 4 5 5 2 4 5 2 4 3 1 3 6 7 3 3 4 4 5 6 7
20 20 19 19 19 18 18 19 18 18 18 15 12 12 8 5 5 4 5 6 2 4 3 2 1 1 3 4 2 2 3 2 2 1 1 1 2 4 4 3 3 0 2 3 4 4 3 2 3 2 3 4 4 6 9 10 8 8 7 5 3 3 3 1 1 1 2 3 4 2 4 3 2 2 6 5 3 4 7 4 1 3 4 5 5 7 7
19 19 19 19 19 18 18 18 18 18 18 15 14 14 11 7 5 4 4 6 3 2 1 1 3 5 5 5 4 4 3 3 3 1 2 2 2 2 2 1 0 2 2 3 4 3 2 2 3 3 4 5 5 4 4 5 5 7 9 7 4 4 3 2 2 2 1 1 2 4 3 3 2 2 4 4 2 3 4 2 1 0 2 3 5 7 7
19 19 19 18 18 18 17 17 17 17 17 15 13 13 13 11 8 5 5 7 4 0 1 1 2 5 5 4 4 4 4 4 3 2 2 2 1 1 1 1 0 1 2 3 3 2 2 1 3 3 3 3 3 3 3 3 2 3 5 6 6 5 4 3 2 2 2 2 2 4 4 3 2 1 2 3 4 3 2 1 1 1 2 4 5 6 8
18 18 18 18 18 18 17 17 16 15 16 15 13 12 14 13 11 10 9 6 5 3 2 1 2 3 4 4 2 4 3 3 3 3 4 4 2 1 2 0 1 1 3 4 3 3 3 2 2 2 1 1 1 3 3 3 4 4 4 7 9 7 4 4 4 3 3 3 1 2 2 3 3 2 4 6 4 3 0 1 2 1 2 4 5 7 9
18 17 17 17 17 17 18 17 16 14 14 14 14 15 15 12 9 11 11 7 5 3 1 1 2 3 2 2 3 2 1 2 2 2 2 3 2 3 3 2 1 1 3 3 3 4 5 3 2 2 1 2 0 2 3 2 3 7 7 7 8 7 5 5 5 3 1 2 1 3 3 2 2 2 6 7 3 2 4 4 5 3 3 5 6 7 8
17 16 16 16 17 17 18 17 17 16 14 13 13 17 19 15 9 10 10 6 5 4 1 2 1 2 1 1 2 2 1 2 2 1 2 2 1 2 3 2 3 2 2 3 3 3 4 3 2 2 0 2 1 2 2 2 2 4 5 5 4 4 3 3 4 3 2 1 1 4 3 1 2 4 7 7 2 4 3 4 5 3 6 7 6 7 7
16 16 16 15 16 17 18 18 18 18 16 13 11 15 19 16 12 16 15 8 4 3 1 2 0 1 2 1 2 2 0 1 2 1 2 3 2 1 2 2 1 2 1 3 3 3 3 2 1 2 1 3 2 2 1 1 0 1 2 3 3 3 3 2 2 2 2 1 1 4 4 2 2 5 7 4 2 2 3 4 3 5 8 7 5 6 6
16 16 15 14 15 16 17 18 18 19 18 13 11 17 19 14 9 12 16 12 5 3 3 3 2 2 3 3 1 1 1 1 1 2 3 1 3 3 4 3 2 2 3 4 3 1 2 1 2 1 2 1 1 1 1 1 1 1 1 0 1 0 1 3 2 1 1 2 1 3 4 3 2 5 5 3 1 2 3 3 4 6 6 5 4 5 5
15 15 14 14 14 15 16 17 17 19 18 13 13 21 25 21 17 16 22 24 14 4 1 2 4 5 6 5 4 2 1 2 1 0 1 3 3 4 4 2 2 1 1 2 2 1 1 1 1 1 1 0 1 1 1 1 3 3 1 2 2 1 1 1 3 1 2 1 1 2 2 2 2 2 2 1 1 1 3 4 5 4 3 3 4 4 4
13 14 13 13 14 14 15 16 16 17 17 14 16 24 26 25 25 25 30 33 23 10 7 7 6 8 9 8 7 4 2 2 1 1 1 1 2 3 3 2 1 1 2 2 2 1 1 2 1 1 1 0 1 1 1 1 2 4 1 2 1 2 3 3 2 2 2 4 5 3 1 1 1 1 1 1 2 3 3 3 4 3 2 2 3 4 5
12 12 12 12 13 13 14 15 15 16 16 14 16 24 27 25 25 26 31 33 23 12 9 8 6 6 7 8 9 7 4 3 1 1 0 1 2 2 1 1 1 1 1 2 2 2 3 2 2 3 2 1 2 2 1 0 2 3 1 1 1 2 2 3 1 3 4 5 4 1 1 3 2 1 1 0 0 2 2 2 2 2 2 3 4 4 5
11 11 11 12 13 13 13 14 15 17 17 15 15 20 25 22 17 17 20 18 10 5 5 5 3 3 4 5 7 7 6 5 4 3 3 2 2 1 1 1 0 1 1 0 2 2 3 2 2 3 2 1 2 3 1 1 3 2 1 1 3 1 1 2 1 2 3 3 2 1 3 5 2 1 1 1 1 1 1 1 1 1 2 3 4 5 6
10 10 11 12 13 14 15 16 16 16 17 16 15 16 18 15 10 8 9 9 6 5 4 4 4 3 3 4 5 5 5 6 5 5 6 5 2 2 0 1 1 2 1 0 1 3 3 2 2 3 2 2 1 1 2 1 1 1 1 2 2 1 2 2 1 1 2 4 4 4 6 5 1 3 1 0 1 1 3 3 2 2 3 4 5 6 7
11 11 13 14 14 16 18 20 20 19 17 16 15 16 17 17 14 13 15 16 11 6 4 2 3 3 3 4 5 5 5 7 6 5 5 5 4 3 2 2 1 2 2 3 3 3 3 3 3 3 2 2 1 2 3 2 1 1 1 3 2 1 1 2 1 1 4 5 5 6 7 3 2 3 1 2 2 1 2 2 2 2 3 4 6 7 8
12 13 14 15 16 18 21 22 23 22 20 19 19 18 16 14 10 7 8 8 5 3 3 2 2 3 2 4 6 7 6 7 7 6 4 3 3 3 2 3 2 2 3 3 3 3 3 3 2 2 2 1 2 2 2 1 2 2 2 3 1 1 1 1 1 2 4 4 2 2 4 5 3 0 2 3 3 2 1 1 2 2 3 5 6 7 7
14 14 14 15 15 17 19 21 22 21 21 21 22 23 22 20 15 8 4 4 5 5 4 3 2 1 2 4 7 8 7 6 7 6 4 3 4 4 4 3 2 2 3 3 2 2 4 3 2 1 2 1 1 1 0 1 2 0 3 3 3 3 4 4 2 2 5 5 3 1 2 5 5 1 3 4 3 2 1 1 1 2 4 5 6 6 6
15 15 14 13 12 12 11 11 10 10 10 12 13 17 20 21 20 17 13 14 19 16 6 2 2 2 0 3 6 6 5 5 6 5 6 6 6 6 6 6 4 3 3 3 3 3 2 2 2 1 0 1 1 0 1 1 1 2 4 5 4 4 5 6 6 5 5 5 3 2 3 5 4 1 4 4 4 3 1 1 0 1 4 5 5 6 6
17 16 15 12 9 7 4 3 2 1 0 2 2 6 9 11 13 14 12 11 13 12 6 3 3 1 2 2 4 7 7 4 3 4 5 7 7 6 6 6 5 4 3 3 3 3 2 0 0 1 2 1 2 1 1 2 2 4 4 4 4 4 4 5 5 4 4 3 2 3 3 4 2 2 5 5 4 2 1 1 1 2 4 4 5 6 6
18 18 18 17 15 13 12 11 9 6 3 2 1 2 3 3 6 7 7 6 6 7 7 4 2 1 2 2 2 7 8 5 2 2 3 4 6 6 5 5 4 4 3 2 2 2 2 1 1 1 2 3 3 2 2 3 2 5 4 5 6 5 5 4 4 4 4 1 1 1 4 3 1 1 3 5 4 1 0 1 2 2 4 5 5 6 7
18 19 20 20 20 20 20 20 19 18 17 16 12 7 3 2 3 5 6 5 6 6 6 4 2 1 2 2 3 6 8 5 3 3 3 2 3 4 5 5 4 4 4 4 2 2 1 1 1 0 1 3 4 3 3 3 3 5 4 5 5 4 4 3 3 3 3 1 2 3 4 2 2 1 2 4 3 1 1 1 3 3 4 5 6 6 7
16 17 18 18 18 18 19 20 21 21 24 25 23 16 10 5 3 4 5 5 6 6 5 4 3 1 1 2 3 6 7 3 2 3 2 2 3 3 3 4 3 3 4 3 1 1 1 2 2 1 1 1 3 3 1 3 6 5 3 3 4 4 3 3 3 2 3 4 3 2 4 4 3 3 4 4 2 1 1 1 2 4 6 6 6 7 8
13 14 14 14 13 14 15 15 16 18 20 21 21 22 21 16 9 5 3 3 6 7 6 4 3 1 2 2 1 4 6 3 2 2 2 3 4 2 1 3 3 3 3 2 2 1 1 1 2 0 2 1 2 1 2 5 6 4 2 2 3 2 1 3 3 3 3 5 5 4 4 4 2 3 4 3 1 1 2 3 4 5 5 5 6 8 9
11 11 10 9 9 9 9 9 10 12 13 13 12 15 19 21 19 15 8 3 3 3 3 3 4 2 3 3 2 4 6 3 1 1 1 2 4 3 2 1 3 2 1 1 1 1 1 1 2 1 1 1 0 2 4 6 5 4 3 4 4 2 1 3 4 3 3 5 5 4 4 3 3 3 3 2 2 2 3 4 4 4 3 4 6 9 10
10 9 7 6 5 4 4 4 5 5 6 6 6 7 9 10 13 16 16 14 12 6 2 1 3 2 1 1 3 4 6 3 1 2 1 1 3 3 3 2 1 0 1 2 2 1 1 0 1 1 2 1 2 4 5 5 5 5 5 6 5 4 4 4 4 2 3 3 3 4 3 4 5 4 3 3 3 4 4 4 4 4 4 4 6 9 10
9 8 5 3 2 2 2 3 4 4 4 4 3 3 4 2 2 6 10 14 14 10 5 4 2 1 1 1 3 4 5 3 2 3 3 1 2 2 2 3 0 1 2 3 1 1 1 2 1 0 2 3 4 5 4 4 5 5 4 5 5 4 4 4 2 3 1 3 4 4 3 3 4 4 3 3 4 4 3 4 5 5 5 6 7 9 10
7 6 5 3 1 2 1 1 2 4 3 2 1 1 3 3 3 3 4 5 7 7 6 5 1 1 1 0 2 3 3 2 1 3 2 1 1 2 1 2 1 1 2 2 2 1 1 3 2 1 4 5 4 5 5 5 4 4 4 4 4 4 4 4 5 4 1 4 4 3 3 4 4 4 3 3 4 4 5 6 7 7 7 8 9 10 10
6 4 2 1 1 1 1 2 3 3 1 1 1 1 2 4 4 2 3 3 3 3 4 3 1 2 2 1 3 3 3 2 2 3 2 1 1 2 1 1 0 1 1 2 1 1 1 2 2 1 4 6 4 3 4 4 4 4 5 5 5 5 5 6 7 6 5 5 5 4 4 5 5 4 3 4 5 6 6 7 7 8 9 10 10 10 10
4 2 1 1 2 2 3 3 1 1 0 2 3 2 2 3 3 1 1 3 3 2 1 2 1 1 1 1 2 2 3 3 1 1 1 1 1 0 1 0 0 1 1 2 2 1 1 1 2 2 3 5 4 3 3 4 4 5 6 6 6 6 6 7 7 7 6 5 5 5 6 6 5 4 4 5 6 6 7 8 8 9 9 9 10 10 10
3 1 1 2 4 4 4 3 1 1 1 2 3 3 2 2 2 1 2 3 2 3 1 2 2 2 2 1 2 2 2 2 2 2 1 2 1 1 1 1 1 1 1 4 2 2 3 0 2 2 4 5 3 2 3 4 4 5 6 7 7 6 6 7 7 7 6 6 6 7 7 6 5 5 6 7 8 8 9 9 9 9 9 9 10 10 9
3 4 5 6 6 5 3 3 4 3 2 2 2 2 1 1 2 2 1 1 1 2 1 1 0 2 2 2 2 2 1 2 2 2 1 2 1 1 1 1 1 1 2 3 0 4 2 1 3 4 5 5 3 3 4 5 5 5 6 8 8 7 8 8 7 7 7 8 8 9 8 7 6 5 6 7 8 9 9 9 9 9 9 9 10 11 10
7 7 6 5 3 2 2 2 3 3 2 2 2 2 2 2 2 1 2 2 1 0 1 2 1 2 1 1 1 2 1 1 1 1 1 1 1 2 2 2 1 1 1 0 3 3 1 3 4 5 5 3 3 4 4 5 5 5 6 7 7 8 9 9 8 7 7 8 9 9 8 8 7 6 6 7 8 9 9 9 9 10 9 9 10 11 10
4 3 2 1 2 2 2 1 1 2 2 1 1 1 1 3 2 1 2 2 1 1 1 1 2 2 2 1 1 0 1 1 1 1 0 1 1 2 1 1 2 1 1 2 1 1 3 4 5 5 4 3 3 5 5 4 4 4 4 5 6 8 8 8 8 8 8 8 9 9 9 9 7 6 7 8 9 10 10 9 9 9 9 10 11 11 10
2 1 3 3 2 2 1 1 2 2 1 0 2 4 3 2 3 4 4 2 1 1 0 1 3 2 3 2 1 1 1 1 1 0 1 1 1 0 1 2 1 1 2 1 1 2 3 4 4 4 4 4 5 5 5 5 6 5 3 3 5 9 11 10 10 10 10 10 11 11 11 10 9 8 9 9 9 10 11 10 9 9 9 10 11 12 11
2 1 3 2 1 2 1 1 1 1 1 2 3 5 5 5 5 5 3 1 3 3 2 2 4 3 2 2 1 0 0 2 1 1 1 2 0 2 2 1 1 2 1 1 2 3 5 5 4 4 5 5 5 4 5 6 8 7 5 3 5 9 12 13 12 12 12 12 12 12 12 12 11 9 9 10 10 10 10 10 9 10 10 11 12 13 13
1 1 3 2 0 2 0 1 2 2 2 3 4 4 4 3 3 2 1 2 3 3 2 2 2 1 1 1 0 1 1 2 1 1 0 1 1 2 1 1 1 1 1 2 4 5 5 4 4 4 5 4 4 4 4 5 7 8 7 6 7 9 11 12 13 13 13 12 12 12 13 13 12 11 10 10 10 10 10 10 10 10 11 11 12 13 13
1 1 1 1 1 1 2 2 2 2 1 1 2 2 2 1 1 2 3 3 3 4 3 2 1 0 1 1 1 1 1 1 0 1 0 1 0 1 2 2 2 2 3 4 5 5 4 4 4 5 4 4 4 5 5 5 7 8 8 8 8 9 11 12 13 14 13 12 12 13 14 13 13 12 11 12 12 11 10 10 10 11 11 11 12 12 13
3 2 2 1 2 2 3 1 2 3 3 2 1 1 1 2 3 4 4 3 3 3 3 3 2 1 1 1 1 1 1 1 0 0 1 1 0 1 0 1 3 4 3 5 5 4 4 4 4 3 4 5 5 5 5 7 8 9 9 10 10 11 12 13 14 14 13 13 13 14 14 13 13 13 13 13 13 12 10 9 10 11 11 12 12 13 13
4 3 1 1 1 1 2 1 1 4 5 4 3 2 3 2 3 5 6 5 3 2 2 2 1 1 0 1 2 1 2 2 1 1 0 1 2 2 1 2 4 5 5 4 4 4 5 4 3 4 5 6 5 5 6 8 10 10 10 10 11 11 12 13 13 13 13 13 14 14 14 14 14 14 14 13 13 12 11 12 12 12 12 12 12 13 13
2 1 1 1 1 2 3 3 2 4 5 3 3 4 4 3 3 5 9 8 4 4 2 0 0 2 2 1 1 1 1 1 1 1 2 3 3 3 2 5 6 6 5 4 4 5 5 4 4 5 5 5 5 8 11 11 11 10 9 9 10 11 11 12 12 13 13 13 13 14 14 15 14 13 13 13 13 13 14 15 14 12 12 13 12 12 13
1 1 0 1 1 2 4 3 2 3 4 3 3 4 3 2 3 7 10 8 5 2 2 2 2 3 1 2 1 1 0 1 0 1 3 3 3 4 5 6 6 5 4 5 5 4 4 4 5 7 7 7 9 12 14 13 11 10 10 10 10 11 12 13 13 13 13 13 14 15 15 14 13 13 13 14 13 14 16 16 13 11 11 13 12 12 13
Wind_Direction
348 348 349 347 348 350 352 357 357 359 5 6 3 11 66 74 152 324 354 350 93 91 43 334 29 41 242 282 40 347 43 77 339 352 15 17 18 24 34 110 57 115 203 299 238 295 274 217 21 7 321 353 28 259 336 300 265 50 22 310 320 56 58 15 298 295 314 314 328 13 43 63 67 37 30 45 340 11 156 183 197 280 322 11 55 301 265
349 350 350 348 352 354 357 2 1 2 8 8 6 30 128 105 210 311 4 10 106 104 65 125 39 343 274 35 24 345 30 90 15 1 1 3 68 55 12 150 27 347 147 107 252 299 359 16 24 47 34 359 104 186 244 314 342 52 31 300 348 344 341 47 1 342 346 344 349 351 348 29 51 6 6 18 9 9 348 169 57 14 274 88 127 259 268
353 353 354 355 359 0 1 3 2 6 10 10 17 73 140 71 131 276 6 29 64 108 149 144 128 210 36 48 18 353 24 74 21 60 56 8 134 108 356 356 58 337 67 49 352 357 30 344 358 40 14 314 337 309 316 327 3 299 273 292 339 252 203 76 82 358 313 309 312 311 315 350 26 6 1 8 27 19 337 309 47 24 285 52 159 222 270
360 1 3 4 5 4 4 4 5 7 10 12 33 70 99 81 55 312 342 22 51 80 133 101 110 134 101 59 15 14 33 335 316 125 93 13 65 75 345 329 24 24 31 27 356 356 17 20 35 32 339 296 290 320 322 302 267 273 286 336 60 103 48 56 123 156 216 236 263 293 320 8 350 344 353 359 2 7 58 88 63 155 301 327 220 199 286
8 10 11 11 11 9 6 6 5 5 7 13 37 53 49 86 77 14 328 351 27 35 17 40 69 115 114 90 11 358 347 325 335 100 86 14 27 48 40 37 33 9 12 23 348 329 352 28 50 18 304 285 286 305 314 286 313 313 306 40 70 83 27 20 96 111 264 245 290 329 39 75 52 7 358 358 356 14 67 84 287 134 82 309 253 191 298
17 18 19 18 18 14 11 9 7 6 7 10 27 45 29 66 130 165 92 41 36 17 6 41 59 45 70 103 30 7 7 10 15 338 340 18 19 26 39 29 23 355 332 21 355 337 353 13 12 324 308 320 327 334 331 318 345 3 25 4 75 103 43 343 100 44 327 360 9 14 76 87 62 49 21 7 15 37 70 104 216 121 122 273 268 326 300
26 27 27 25 24 20 16 12 8 10 10 13 40 70 39 74 111 317 10 85 133 358 345 60 67 40 44 66 37 30 30 26 15 317 354 6 1 32 38 355 353 348 336 73 61 352 355 339 309 323 348 338 354 1 340 323 0 29 31 355 77 116 17 318 112 43 353 12 11 25 92 105 63 41 28 14 27 48 67 143 233 238 266 263 317 329 304
35 35 33 30 28 23 20 17 12 15 18 21 49 65 51 107 139 184 52 61 70 23 6 55 69 34 33 51 31 40 44 22 1 1 31 12 346 23 35 329 327 353 33 75 94 279 226 221 258 230 50 357 8 28 330 302 341 13 27 341 342 35 353 345 86 35 328 356 31 34 70 110 101 53 21 12 17 37 46 11 352 345 292 289 343 319 293
38 37 35 32 30 26 24 23 19 20 26 42 65 62 63 102 137 141 102 54 355 5 11 55 79 36 14 24 359 16 28 5 348 9 28 70 15 7 348 305 310 26 43 59 46 276 203 184 232 205 145 52 26 21 12 267 321 352 18 346 354 28 8 8 57 36 295 334 48 29 9 79 96 32 2 360 1 12 12 342 324 286 285 306 331 315 295
40 38 37 34 32 30 28 28 28 29 37 54 76 72 79 97 62 73 102 76 359 1 360 32 68 54 356 357 331 355 341 302 182 103 19 74 127 215 248 258 99 48 30 35 355 275 218 190 230 187 139 96 79 73 66 83 20 346 13 13 15 61 67 30 46 39 285 323 5 266 336 357 315 314 341 326 316 13 354 318 297 269 270 294 299 294 326
41 39 37 35 34 32 32 33 32 37 45 53 76 105 104 92 70 45 80 76 2 351 27 37 42 40 4 351 327 5 4 347 29 100 103 355 359 260 250 99 101 80 31 23 63 230 185 151 115 105 99 85 83 89 76 67 60 30 2 35 53 71 82 81 51 29 283 301 344 38 29 337 263 223 8 290 253 63 357 315 305 317 58 61 308 332 347
39 38 36 34 34 32 33 36 35 41 48 47 64 90 77 61 83 66 85 97 349 350 50 59 15 5 343 334 298 255 354 354 336 141 152 288 340 6 18 52 76 78 9 101 92 87 85 82 82 73 65 69 79 68 56 49 40 26 45 89 83 48 56 90 85 62 280 311 21 27 325 251 211 139 25 329 186 67 335 305 305 30 45 37 3 345 339
37 36 35 34 34 33 35 38 37 43 46 40 51 73 66 53 77 83 95 104 40 352 54 63 350 30 354 347 344 270 286 302 284 270 90 53 24 20 12 46 75 287 212 130 82 73 77 53 40 12 346 352 9 33 45 43 28 20 33 51 67 67 71 97 88 57 331 6 33 327 267 238 183 37 11 4 32 11 338 322 67 42 35 34 355 325 323
37 36 35 34 37 37 38 40 40 43 44 38 45 63 59 47 70 104 113 100 83 302 128 56 357 0 346 338 341 317 319 355 352 2 58 45 55 43 347 287 199 265 195 115 60 51 96 65 33 357 324 354 8 1 23 43 37 33 30 23 35 81 95 58 35 48 56 41 278 278 320 5 358 358 7 359 338 333 333 317 241 353 52 27 339 316 319
36 36 36 36 38 39 40 42 42 43 43 37 39 60 63 54 61 92 113 111 117 71 28 47 323 327 319 312 335 357 1 7 9 3 348 353 61 71 301 276 289 351 101 95 63 61 92 84 49 22 349 5 6 313 327 8 6 40 48 34 33 52 73 76 57 38 67 62 324 334 357 333 278 228 337 324 291 276 270 245 267 4 23 351 334 324 325
35 36 37 39 41 42 41 41 41 43 44 40 42 58 62 56 63 81 90 102 112 77 22 327 268 291 294 290 331 36 28 344 350 2 346 352 8 316 295 341 20 52 73 65 71 80 61 71 125 97 345 280 266 296 329 2 326 321 25 42 36 33 44 76 73 36 46 70 7 299 265 257 235 227 306 317 297 266 356 359 299 278 317 332 341 336 333
35 36 38 42 43 43 42 42 42 44 43 41 45 56 59 58 70 84 83 80 89 88 18 318 277 284 309 319 327 22 41 322 11 54 340 329 332 318 324 359 1 79 97 60 37 62 61 56 82 68 328 254 126 328 324 23 350 321 336 11 25 21 6 31 53 39 41 90 269 259 233 232 224 245 297 308 293 119 54 345 293 267 325 343 352 343 338
35 37 40 44 45 44 43 43 44 47 45 43 49 57 59 57 69 92 92 85 94 102 7 331 270 274 340 34 292 314 355 342 3 28 309 323 357 330 322 339 358 3 96 82 46 59 71 51 48 80 291 286 46 48 329 23 6 311 320 346 7 12 355 25 69 60 24 78 266 282 273 242 270 282 292 302 332 78 37 306 278 318 345 350 2 350 338
35 38 41 45 47 44 43 44 45 47 44 42 52 61 61 63 80 94 92 78 62 87 26 328 330 327 324 270 240 276 347 21 352 30 30 2 346 330 322 322 13 1 32 76 74 82 81 38 328 117 99 318 352 90 71 34 353 297 343 360 1 7 346 349 52 47 12 97 206 295 294 235 253 291 297 316 19 12 304 284 306 340 340 351 6 348 335
35 38 41 46 48 45 44 46 47 48 46 47 68 73 66 62 73 92 102 108 105 89 59 8 33 48 10 16 56 344 340 14 5 75 89 308 296 39 31 340 331 6 18 50 63 77 90 66 293 86 94 304 311 98 71 349 328 322 44 124 237 209 332 324 311 253 352 15 359 320 297 243 250 311 323 2 50 296 296 325 340 336 341 356 354 333 335
35 38 41 47 50 47 47 47 47 51 53 57 81 82 73 70 77 92 107 110 108 106 93 61 72 81 65 55 67 57 18 49 33 101 142 269 289 78 92 258 293 19 34 80 85 78 116 136 226 39 99 227 10 67 128 350 332 319 151 155 202 198 161 290 270 210 95 25 289 243 240 249 286 327 328 352 4 331 337 326 316 329 1 360 331 319 335
35 40 43 49 54 52 51 52 52 58 63 67 81 88 86 86 90 94 94 90 85 90 119 117 98 82 68 56 56 57 74 104 142 235 206 285 340 75 116 144 75 106 183 119 85 71 121 118 119 107 114 62 42 90 131 90 326 299 306 100 164 219 192 193 238 236 190 219 243 231 162 221 270 234 218 8 359 350 346 312 304 327 3 347 325 322 329
38 43 47 55 61 56 53 57 59 65 73 73 79 92 100 100 95 93 91 89 88 94 106 110 100 72 49 34 37 43 66 96 93 264 175 52 12 33 64 87 90 196 188 94 111 159 147 141 133 119 127 139 106 104 105 92 255 249 226 102 219 222 167 136 193 276 268 257 265 303 359 304 283 181 165 147 318 324 348 350 321 332 345 335 329 323 318
41 47 55 65 67 61 57 62 68 72 76 76 79 93 105 106 97 90 91 91 96 101 81 66 57 38 2 2 25 37 48 66 65 46 41 49 76 70 356 316 115 71 8 190 174 132 112 142 137 99 102 162 124 111 127 242 245 202 134 327 297 261 149 140 195 304 311 293 278 344 317 301 290 143 161 191 157 122 58 66 18 346 347 334 327 321 313
44 55 70 74 70 68 69 73 79 80 78 79 81 88 95 96 90 89 92 92 101 109 85 36 5 1 349 358 25 34 31 35 39 34 25 23 57 97 147 260 133 116 137 201 114 82 73 94 116 99 118 166 157 147 169 204 238 176 160 270 283 214 179 212 227 223 250 263 275 307 313 304 165 131 133 126 119 113 101 90 46 3 342 323 321 323 317
54 69 82 82 80 82 82 81 82 82 81 82 80 80 85 88 87 92 99 99 95 91 92 67 337 356 31 30 24 21 21 20 17 10 5 1 11 49 123 163 142 122 100 66 73 99 104 100 99 104 129 143 129 155 183 194 130 106 218 233 206 117 164 208 216 270 270 278 303 329 328 320 145 140 128 110 103 87 87 67 21 351 330 318 319 323 321
65 80 89 91 91 92 90 88 86 83 82 81 78 75 77 80 83 100 116 110 86 53 87 136 275 316 55 55 26 19 21 17 12 9 7 2 6 21 81 145 141 76 63 58 62 86 86 74 78 113 159 167 103 116 175 194 113 112 252 249 161 111 197 192 66 332 286 280 306 349 324 301 280 252 99 106 100 84 74 20 345 338 335 326 319 320 320
73 86 95 99 102 102 99 95 91 87 83 80 75 71 69 64 61 70 101 119 109 108 127 164 188 161 96 43 13 12 21 22 23 33 47 60 58 52 71 117 133 73 63 79 90 70 64 74 110 149 169 168 90 75 349 11 61 59 255 231 175 179 188 167 164 238 258 272 278 184 228 276 294 10 108 123 108 93 104 283 311 314 323 325 318 314 319
76 85 96 103 108 111 108 99 90 83 82 81 74 72 70 65 65 73 86 98 102 105 108 107 97 96 32 351 355 2 19 28 30 48 63 65 67 69 72 83 101 105 96 100 100 88 84 128 162 175 184 142 142 99 339 37 34 267 240 204 185 192 183 173 185 215 253 280 277 179 203 268 301 50 122 131 114 110 181 228 216 295 312 321 314 309 318
79 83 89 94 97 97 86 57 15 331 167 148 103 67 64 58 59 70 83 93 98 102 105 101 93 15 304 314 353 2 13 26 36 46 53 54 54 55 61 73 86 90 84 78 86 103 121 76 18 289 299 80 127 152 129 133 216 267 250 205 195 198 195 193 196 209 246 261 185 168 228 269 288 118 131 133 124 123 188 210 216 293 311 316 314 312 316
84 84 84 83 81 74 63 56 58 65 90 132 132 69 66 42 30 47 67 78 87 98 100 97 92 336 326 299 332 1 6 6 9 16 23 38 41 39 47 59 56 48 59 73 76 99 127 86 32 331 323 35 88 130 141 135 243 282 262 208 201 200 199 209 214 224 247 267 93 232 254 242 177 116 143 151 146 122 119 215 243 293 313 314 314 311 307
92 89 86 85 82 79 74 71 71 74 77 77 75 80 110 111 42 51 76 89 91 98 97 85 77 12 337 290 306 353 358 353 5 20 11 11 22 26 39 53 54 53 74 99 92 51 106 149 118 35 331 41 73 97 111 136 223 256 233 201 205 203 195 211 238 235 220 144 76 316 284 230 174 238 208 172 163 150 328 252 260 296 319 318 315 310 304
103 98 94 91 87 84 83 80 78 78 77 74 72 70 69 71 72 78 88 84 76 82 91 95 102 95 307 273 310 352 356 344 355 22 25 359 354 358 16 32 44 49 50 70 117 84 97 131 110 52 324 39 85 96 124 211 227 240 232 202 197 188 191 223 247 232 199 171 164 240 281 276 253 226 192 170 171 265 306 290 288 312 327 325 315 313 316
119 112 104 99 94 89 87 84 81 82 79 73 68 63 60 59 61 66 92 101 80 68 61 75 111 128 336 339 335 360 9 8 339 359 4 346 358 21 20 353 14 44 36 38 95 86 356 53 108 149 284 355 76 103 252 253 246 247 252 219 192 174 240 277 265 239 212 191 191 221 263 274 241 184 175 183 218 275 308 321 317 318 324 318 306 311 320
139 128 116 109 101 93 89 83 79 77 75 73 73 69 64 61 57 55 58 71 71 58 30 43 86 102 6 357 310 329 6 28 3 308 270 313 355 40 112 350 4 48 39 21 80 69 359 57 143 201 267 338 42 229 239 248 250 239 224 219 206 179 228 271 266 240 191 180 202 247 262 231 203 196 197 213 246 283 304 311 307 300 296 294 300 309 316
160 151 136 122 110 100 87 69 58 61 75 88 92 78 67 61 54 54 59 62 63 78 140 54 61 103 81 339 276 316 357 12 319 323 318 298 347 24 73 72 44 145 55 39 62 75 7 83 155 273 299 244 223 229 218 208 215 214 213 219 212 190 207 247 249 198 167 191 240 265 248 209 217 232 220 220 255 292 306 302 293 286 281 285 296 304 309
173 172 169 163 123 84 56 42 52 77 103 120 113 61 39 36 37 41 48 51 50 55 81 94 95 184 184 232 273 326 351 335 301 345 349 283 290 339 45 67 68 260 9 21 20 206 358 35 78 221 246 224 223 239 228 192 193 207 209 211 207 200 219 237 189 137 165 283 278 267 244 225 231 232 223 242 276 298 300 285 276 271 270 274 284 294 300
164 171 184 192 100 45 24 26 88 112 114 117 159 31 11 19 46 35 20 26 31 35 55 79 116 250 60 285 283 332 356 334 340 5 348 232 262 327 25 82 133 253 325 315 259 204 42 27 51 214 255 264 269 257 238 211 204 210 191 182 200 218 222 202 162 148 227 286 282 263 254 261 261 249 239 260 277 275 267 267 266 267 273 279 284 291 296
160 169 177 148 87 103 159 140 123 136 147 352 25 78 358 13 42 32 341 353 14 6 25 60 140 174 102 41 306 336 33 40 8 358 346 279 291 316 336 78 120 10 5 299 275 58 17 335 5 348 282 285 293 262 223 192 190 204 192 191 215 230 216 198 187 190 220 254 262 250 241 247 256 250 239 259 275 272 264 263 265 269 274 280 285 291 294
170 171 155 107 93 119 144 147 146 182 238 7 24 50 31 25 48 75 356 26 32 335 351 62 153 217 119 96 276 307 27 41 21 304 301 276 241 152 62 71 240 25 347 267 275 44 61 283 330 345 270 260 259 238 195 173 185 201 200 206 223 228 215 206 205 209 220 236 244 239 230 227 231 234 238 252 262 264 265 269 270 270 272 277 284 290 292
201 181 116 125 125 119 117 109 68 51 77 42 27 37 42 8 359 19 51 43 359 281 279 66 37 327 345 111 189 246 329 19 86 129 121 305 287 94 60 301 290 59 257 253 259 68 78 36 301 273 244 243 246 218 188 188 202 211 212 216 222 219 209 204 206 212 219 222 223 222 224 226 230 239 249 253 254 257 264 270 272 272 275 281 288 293 297
168 136 120 120 123 121 100 58 38 36 52 56 30 23 18 345 359 15 27 34 264 272 293 70 105 262 257 211 197 221 278 1 46 87 77 314 290 119 100 329 2 53 241 248 357 60 57 291 276 262 252 250 243 203 191 201 210 214 218 222 221 217 211 206 210 223 231 231 229 227 224 226 235 249 259 260 258 258 262 268 272 276 281 286 292 299 305
130 129 125 120 102 63 31 21 28 40 54 52 34 3 337 345 7 2 310 292 270 229 289 290 297 304 297 250 215 231 251 344 25 81 100 306 316 71 60 22 8 200 237 349 58 63 226 232 235 244 254 255 231 211 211 216 214 214 227 232 228 223 219 215 219 232 239 239 237 233 228 230 241 257 266 263 259 258 260 264 271 278 284 290 294 300 308
134 123 97 80 25 17 15 346 9 46 51 32 63 99 332 326 314 238 258 277 264 230 270 320 34 1 306 303 44 318 280 48 65 70 347 323 355 64 63 263 243 239 343 33 57 229 240 237 236 244 259 273 245 224 217 215 209 212 232 239 227 217 215 215 220 229 234 234 233 231 230 235 243 252 260 263 263 264 266 267 267 272 279 285 291 298 306
214 335 31 32 354 352 13 320 345 30 56 213 175 164 183 247 241 221 228 232 168 139 301 79 97 115 258 270 44 63 289 7 27 334 313 8 15 13 228 237 254 31 40 3 312 289 269 262 262 255 246 244 237 218 205 208 210 205 209 224 217 213 214 217 221 226 232 237 238 235 234 239 244 250 258 263 264 264 266 269 271 274 279 284 290 297 305
167 109 77 85 309 324 58 66 340 355 177 203 194 178 181 200 209 211 222 181 130 144 194 166 118 117 263 287 345 32 36 55 44 252 133 86 28 259 240 228 20 39 43 292 280 265 247 248 255 245 230 229 225 206 199 207 205 198 197 217 224 222 223 225 228 232 240 245 244 241 240 243 248 253 260 265 263 259 262 267 272 276 281 285 290 297 303
149 78 86 108 329 340 43 197 243 237 198 199 204 199 195 208 228 231 215 170 157 157 160 134 116 141 240 264 38 324 354 62 56 270 227 115 208 278 359 35 287 228 190 229 249 247 243 248 254 240 227 219 202 193 202 208 203 203 216 234 238 235 233 230 230 235 242 245 244 242 244 249 253 258 264 267 264 259 259 263 269 274 278 281 287 295 301
198 56 82 138 202 235 215 222 289 298 249 206 229 233 200 168 270 252 211 169 141 127 120 116 115 213 302 16 81 252 289 41 103 254 245 102 185 318 10 357 282 253 206 209 226 233 235 237 236 229 217 196 184 188 201 210 212 216 224 235 241 242 238 232 232 238 244 244 243 245 250 255 259 263 267 269 268 265 261 260 264 271 275 276 280 290 297
93 87 84 106 145 190 200 153 3 315 285 278 314 292 178 172 239 238 200 149 123 129 147 147 134 151 261 334 59 84 278 270 221 301 359 25 221 220 173 265 280 277 247 222 219 230 241 237 227 214 199 190 189 198 207 212 217 222 228 237 245 247 241 237 239 244 246 244 245 251 256 259 261 264 267 270 273 273 270 264 265 270 274 273 276 284 294
66 84 105 105 116 244 237 113 44 310 300 303 293 247 186 188 243 225 181 157 129 96 95 82 74 114 183 353 34 15 278 243 156 104 7 236 206 179 177 226 234 235 233 225 221 233 241 229 196 194 206 205 202 208 215 217 221 229 237 246 251 250 244 243 245 247 246 246 249 253 255 255 258 263 269 273 275 275 272 270 270 271 271 270 272 281 290
37 63 115 125 161 197 179 156 189 257 268 264 246 217 186 186 227 199 172 156 119 75 81 167 107 69 52 19 4 246 257 239 120 143 247 234 183 148 187 231 233 226 228 240 242 238 234 214 186 192 207 212 210 214 219 221 224 231 239 246 246 243 241 243 244 245 247 249 251 251 252 255 260 266 271 273 273 271 270 271 273 272 269 267 269 278 288
81 172 269 5 63 155 155 152 205 239 235 229 222 205 191 206 204 171 157 144 120 110 172 181 97 82 63 263 232 165 71 12 15 257 249 238 199 179 199 222 229 218 217 243 258 249 228 217 209 204 203 203 209 214 217 221 225 230 235 238 238 237 239 242 243 245 247 248 249 252 255 257 259 262 265 265 263 262 266 274 279 277 269 268 272 280 287
Height
835 833 831 830 828 826 823 822 819 817 814 812 812 811 811 813 814 811 809 808 806 807 819 836 841 840 846 851 851 852 850 848 847 849 849 848 847 846 845 847 847 846 848 848 847 846 842 840 842 843 847 850 856 866 871 869 865 856 849 850 852 849 848 844 835 831 834 838 842 846 847 843 842 850 863 865 859 856 852 847 849 848 845 851 851 845 862
835 833 831 830 828 826 824 822 819 818 816 814 813 812 815 818 817 814 811 806 804 810 821 828 834 843 848 846 847 851 852 849 847 847 848 849 849 844 844 849 847 848 853 850 847 847 841 839 846 849 848 852 861 868 869 865 859 854 853 854 852 846 845 845 839 832 830 832 834 837 839 845 851 859 870 873 871 866 860 859 856 850 856 866 857 848 863
835 833 831 829 827 826 824 822 821 819 817 816 815 815 817 819 818 818 816 810 810 822 832 831 832 840 842 840 844 848 848 852 852 850 850 855 855 848 847 851 852 852 853 850 850 851 844 842 848 853 851 853 861 864 864 863 859 858 861 861 856 851 849 849 844 839 837 834 837 842 845 853 860 865 872 875 873 866 856 851 847 848 865 875 862 855 868
835 833 831 829 828 826 824 823 822 820 819 818 816 816 818 818 819 821 820 818 822 834 844 839 833 837 838 838 846 847 843 850 857 854 852 855 856 853 852 853 852 850 849 847 847 850 853 851 851 854 854 852 858 862 862 862 860 860 863 864 859 854 856 858 852 850 852 850 854 860 858 858 863 867 873 876 878 875 862 852 853 862 873 869 863 869 876
835 834 832 830 829 827 826 824 822 821 820 818 817 819 821 821 826 831 827 825 829 835 842 842 838 840 841 840 848 849 844 847 851 851 852 855 857 854 853 855 854 851 852 849 847 850 855 855 855 860 863 858 858 862 863 861 860 860 862 864 860 851 852 863 864 864 870 870 870 871 867 869 876 877 878 878 877 873 864 862 868 877 874 862 866 882 879
836 834 833 831 830 828 826 825 823 822 821 819 818 821 824 825 831 839 835 831 835 836 839 845 844 844 846 848 852 850 847 849 850 851 853 855 855 852 849 856 861 862 861 855 851 852 852 853 859 864 867 864 859 857 858 858 859 860 858 861 862 852 852 866 870 868 874 876 874 875 874 880 887 885 883 884 880 873 872 876 881 882 876 867 872 883 881
837 835 834 833 831 829 828 826 824 823 821 821 819 821 828 830 833 840 839 838 844 847 849 850 845 844 847 849 853 853 850 853 857 858 854 851 854 853 850 858 865 866 865 858 855 858 854 853 863 868 868 869 866 861 858 858 861 860 857 862 866 857 855 869 870 865 871 876 875 878 878 881 888 889 887 887 884 881 880 881 882 883 879 876 881 885 885
838 837 835 834 832 831 829 827 825 824 822 822 821 823 829 829 830 836 837 841 850 853 853 849 841 845 851 850 854 860 856 855 861 865 859 852 855 859 857 862 867 866 864 859 860 867 865 861 866 871 870 870 871 869 866 865 863 860 860 864 865 856 857 872 873 861 864 875 878 880 881 879 883 889 890 889 886 885 885 883 884 885 880 880 886 886 886
840 839 837 836 834 832 831 828 827 825 823 822 824 827 830 829 831 832 831 841 852 851 852 852 843 847 857 856 858 861 859 861 864 865 866 863 860 863 863 864 866 865 864 864 866 872 873 869 870 873 872 871 873 872 872 873 865 861 866 868 865 860 860 871 871 853 855 874 877 879 884 880 877 884 890 891 888 886 888 888 887 887 884 885 887 886 889
842 841 839 837 836 833 832 830 828 827 825 824 825 828 831 831 831 832 830 840 856 856 853 853 848 853 865 866 863 862 862 867 865 859 863 869 866 867 868 865 864 863 864 868 872 873 874 873 873 875 875 875 877 875 876 878 870 866 870 871 877 877 864 865 871 855 852 872 880 881 880 867 865 881 893 894 891 890 891 891 888 890 890 890 890 891 896
843 842 840 839 837 835 834 832 830 829 827 826 827 829 832 830 830 833 830 836 857 865 857 854 854 860 868 870 867 865 862 864 864 857 857 865 869 870 870 866 863 865 869 873 875 875 876 875 876 877 876 874 877 878 877 878 877 876 873 869 878 883 869 869 880 864 852 869 883 880 866 854 865 889 897 895 893 893 894 893 891 892 894 896 898 898 900
845 843 842 840 838 837 835 833 832 831 829 829 829 829 831 831 830 832 831 836 857 867 859 862 870 870 872 873 869 865 863 863 866 864 860 863 868 870 870 867 864 868 874 876 875 875 875 875 874 874 875 875 876 877 875 874 877 881 879 871 869 871 868 874 885 875 863 872 875 857 846 859 884 897 896 894 894 894 894 895 898 900 900 901 904 902 900
846 845 843 842 840 838 837 835 834 833 831 831 831 830 832 832 831 833 835 842 861 872 866 870 880 877 875 875 869 864 868 870 870 871 868 866 868 870 872 872 869 872 875 875 875 875 873 875 875 872 872 873 871 872 874 877 878 878 880 879 873 867 867 873 880 877 871 875 871 855 857 881 896 894 894 897 895 894 895 895 901 906 904 904 907 905 903
848 847 845 843 842 840 839 838 836 835 834 833 832 832 832 832 832 835 836 842 866 885 879 868 871 877 876 875 871 866 866 869 869 870 871 870 870 872 874 875 874 875 875 874 874 874 873 874 873 871 870 869 865 867 873 879 883 881 879 882 880 874 871 872 875 879 882 883 881 873 872 882 891 896 901 903 901 902 903 900 902 907 906 906 907 905 904
849 848 847 845 844 842 841 840 838 837 836 835 834 834 834 833 833 834 836 843 860 878 881 873 875 884 883 878 875 867 861 865 868 868 872 875 873 873 875 876 875 874 875 874 874 875 873 870 869 867 868 869 868 869 871 874 880 885 885 887 885 882 880 876 873 884 893 887 881 875 864 866 887 903 906 904 903 904 906 905 903 906 906 905 905 906 905
851 850 849 847 846 844 843 842 840 839 838 837 836 836 835 835 835 834 838 843 847 861 880 888 891 893 887 880 879 874 869 870 870 866 867 870 871 874 875 875 875 875 875 876 877 876 871 869 873 873 873 877 877 873 873 876 877 878 882 885 884 885 891 887 879 889 901 893 884 881 870 873 896 909 905 904 904 903 905 900 896 903 909 905 904 907 905
853 851 850 849 847 846 845 843 842 841 840 839 838 837 836 837 838 836 838 845 855 871 889 894 892 892 886 878 878 880 879 879 876 869 866 868 872 875 874 875 876 876 875 875 875 873 870 873 879 876 877 886 884 875 878 886 884 879 881 886 887 888 893 893 888 897 911 905 892 885 880 888 905 909 904 903 903 904 902 889 886 902 910 904 904 907 905
855 853 852 851 849 848 847 845 844 843 842 841 840 838 838 839 839 838 840 847 861 880 894 894 890 891 888 882 882 885 884 883 880 875 872 874 877 877 876 877 876 873 875 875 872 870 872 879 885 880 878 886 886 880 884 891 892 894 897 898 898 900 905 908 903 904 911 911 898 886 885 898 909 907 904 904 901 900 897 890 893 905 906 902 906 908 906
856 854 853 852 851 850 849 847 846 845 843 843 842 841 841 842 841 841 844 851 863 878 891 894 892 891 891 890 889 889 887 887 885 879 871 871 878 882 881 881 877 875 876 875 875 880 880 883 894 894 884 885 890 890 893 897 899 905 909 906 904 906 909 913 911 908 915 922 913 892 886 902 912 907 902 902 899 897 897 899 904 906 904 905 908 907 907
858 856 855 854 853 852 851 849 848 847 845 844 843 843 844 846 845 842 844 854 869 883 893 894 892 892 892 892 890 889 889 889 887 883 876 875 881 881 874 872 875 878 877 873 877 887 885 882 894 899 890 892 899 896 897 904 907 910 912 911 912 913 908 905 910 914 918 920 908 887 882 899 912 907 901 902 902 903 905 906 907 905 906 909 908 908 909
859 858 857 855 855 854 852 851 850 849 848 847 845 844 846 849 849 848 847 849 860 877 890 893 893 893 893 893 893 893 892 890 889 889 885 885 886 880 871 875 882 884 885 881 880 887 889 889 895 896 893 898 901 898 901 904 904 911 917 913 914 918 912 906 911 918 915 905 894 888 893 905 909 906 905 906 906 907 909 908 907 907 908 910 909 909 909
860 859 858 857 857 856 854 854 853 851 851 851 848 846 850 853 854 854 852 851 859 876 889 893 894 894 892 893 894 892 893 892 892 892 890 887 887 884 882 886 889 889 892 890 883 884 890 892 893 893 896 900 901 907 916 907 895 906 918 911 908 915 915 912 913 915 913 904 896 898 905 908 908 907 907 908 908 909 909 909 909 909 909 910 910 909 908
861 861 860 858 858 858 856 856 855 854 854 854 852 850 852 856 858 856 854 857 869 883 891 892 892 893 893 894 894 892 893 893 891 892 892 887 886 888 888 890 889 890 893 890 885 885 887 890 894 895 898 905 904 907 915 909 901 908 913 909 911 917 918 919 917 915 912 905 900 904 906 905 907 908 907 908 909 909 909 909 910 910 910 910 910 909 909
862 862 861 860 860 859 858 858 857 856 856 856 855 855 855 857 859 858 858 862 871 880 888 892 894 894 894 895 894 893 893 893 891 892 892 889 886 886 888 891 890 890 892 891 891 892 890 893 900 896 895 907 909 901 901 902 905 911 910 908 914 919 918 918 918 916 912 903 900 906 907 904 906 907 907 909 909 909 910 910 910 911 910 910 910 909 909
864 863 863 862 861 861 860 859 859 859 859 859 858 858 858 859 860 859 859 863 868 873 883 892 896 896 896 896 895 894 894 893 892 891 890 891 890 886 888 892 891 890 892 891 893 893 889 892 899 895 894 905 910 906 905 904 905 911 910 905 909 915 916 916 916 918 914 904 900 906 905 903 906 907 907 909 909 909 910 910 909 910 910 909 910 909 908
865 864 864 863 863 863 862 862 861 861 861 862 861 861 860 860 862 862 861 863 868 874 885 894 897 897 896 896 895 895 894 893 893 893 891 891 891 889 890 892 892 891 893 893 893 894 893 895 899 897 898 905 908 908 909 908 908 912 910 906 910 914 914 914 916 916 913 906 902 906 905 902 905 907 907 909 909 909 910 910 909 910 909 909 909 908 907
866 866 865 865 865 865 864 864 864 864 864 864 864 864 863 863 864 864 863 863 865 871 882 893 898 897 896 896 896 895 895 894 893 893 892 891 891 891 891 891 892 892 893 892 893 895 895 896 899 901 905 909 912 913 915 915 915 915 910 908 913 913 910 914 917 914 910 905 903 907 907 904 903 905 907 908 908 909 909 909 909 909 908 908 908 906 906
868 867 867 867 867 867 867 866 866 866 867 866 866 865 865 865 865 864 865 864 863 868 881 892 897 897 896 896 896 895 895 895 894 893 892 892 892 891 890 891 892 892 892 891 891 894 895 895 900 908 911 910 909 913 918 919 916 909 904 905 909 907 905 909 912 909 905 902 903 907 909 906 903 904 907 908 908 908 909 909 908 909 908 908 907 906 905
869 869 869 869 869 869 869 868 868 868 868 868 868 867 867 868 868 867 868 867 865 871 883 891 894 896 896 896 897 897 895 895 894 894 893 893 892 892 892 892 891 892 895 894 893 896 901 903 906 909 909 907 906 908 913 915 909 899 896 901 904 903 903 904 905 905 904 902 903 906 907 905 904 905 906 907 908 908 908 908 908 908 908 907 906 906 905
872 871 871 871 871 871 870 869 868 868 868 868 868 868 868 870 872 871 872 872 870 873 880 887 891 896 898 898 897 897 896 895 895 894 894 893 893 892 892 892 892 893 894 894 895 899 904 906 908 908 907 908 908 907 911 917 910 896 895 901 902 901 902 902 902 903 903 902 903 906 905 905 905 905 905 906 907 907 907 907 907 907 907 907 906 905 904
874 873 872 873 872 872 871 870 868 868 868 867 868 870 870 872 874 874 873 873 872 873 880 887 894 898 899 898 897 896 896 895 895 895 894 894 893 893 892 892 893 893 893 895 899 903 904 905 906 907 908 909 908 907 912 915 904 892 893 899 900 900 901 901 902 902 902 902 904 904 904 904 904 904 905 906 906 906 906 906 906 906 906 905 905 904 903
875 875 875 875 874 874 873 873 871 870 869 869 870 872 873 874 875 875 875 874 874 875 879 886 893 898 898 897 897 897 896 895 895 895 894 894 894 893 893 893 893 893 895 898 900 903 905 907 907 907 909 909 909 912 914 909 897 890 892 896 897 899 901 900 901 902 902 902 904 903 902 903 903 903 904 904 905 905 906 905 905 905 905 904 904 903 902
877 877 877 876 877 877 875 875 875 873 872 873 873 875 876 876 875 875 875 875 876 877 879 884 891 896 898 897 897 897 896 896 896 896 894 894 895 894 894 895 895 895 895 897 900 903 906 908 907 907 909 911 912 912 909 900 892 890 893 896 898 899 900 900 901 901 901 902 903 902 901 901 902 902 903 903 904 904 904 904 904 904 903 903 902 901 901
878 879 879 878 879 878 877 877 877 876 875 876 876 877 877 876 877 877 876 876 877 879 882 888 892 894 896 897 897 897 897 896 897 897 896 894 895 895 894 895 896 896 896 898 902 905 906 908 907 905 907 913 916 910 899 890 889 893 896 898 898 899 899 900 899 899 901 901 901 902 902 901 902 902 902 903 903 903 903 903 902 902 902 901 901 900 899
880 879 879 880 880 879 879 880 878 878 878 878 879 881 880 878 879 878 876 876 877 879 886 894 896 894 894 893 893 896 898 898 899 901 899 896 895 897 897 895 895 896 897 900 903 904 906 908 906 904 907 912 908 898 888 883 886 893 896 897 898 898 898 898 897 897 900 901 900 901 901 900 901 901 901 901 902 902 902 902 901 901 901 900 899 899 898
880 880 880 881 881 880 880 880 879 880 880 880 881 882 881 880 881 880 878 879 878 880 889 900 903 903 901 896 895 898 899 898 900 903 902 898 896 898 898 895 894 898 903 904 904 905 907 908 905 904 908 904 891 882 884 885 885 889 892 893 896 897 895 895 896 897 899 900 900 900 900 900 900 900 900 900 901 900 900 900 900 899 899 899 898 897 897
881 881 881 881 881 881 881 881 881 881 881 881 883 883 881 882 882 881 880 881 882 885 892 896 902 911 913 907 904 903 900 898 902 902 900 899 899 899 900 897 896 900 903 901 902 905 908 909 906 902 899 892 883 882 889 889 886 889 892 892 893 895 895 895 897 897 898 899 898 898 898 899 898 898 899 899 899 899 898 898 898 898 897 897 897 896 896
881 882 882 881 882 882 882 882 882 882 882 883 883 881 882 883 882 882 886 888 887 892 898 899 903 914 917 911 906 903 900 903 906 901 899 902 900 898 900 900 899 901 901 899 904 909 907 910 916 911 896 888 887 888 890 890 889 890 891 891 892 893 893 894 896 896 897 897 896 896 897 897 896 897 898 897 897 897 897 897 896 896 896 895 895 895 894
881 882 882 881 882 882 882 882 883 883 883 883 882 881 884 885 882 884 892 896 894 898 903 904 907 915 915 908 906 905 904 906 905 900 900 902 898 895 899 900 901 903 899 895 903 908 899 901 918 916 894 882 884 885 885 889 891 890 890 891 891 891 892 893 894 895 895 894 894 895 895 895 895 895 896 896 895 895 895 895 895 895 894 894 893 893 892
882 882 882 882 882 882 882 883 883 882 882 883 882 883 885 887 888 893 897 895 895 902 907 907 911 917 916 910 909 909 907 905 905 904 904 903 900 900 901 899 901 902 895 891 903 909 898 896 909 905 883 873 879 884 886 889 889 888 889 890 889 890 891 892 892 893 893 893 893 894 893 894 894 894 894 895 894 893 893 893 893 893 893 892 892 891 891
882 882 881 881 882 882 883 884 883 883 884 884 883 886 889 892 899 906 902 892 893 904 912 912 911 912 914 914 912 910 908 908 910 911 908 905 904 903 899 899 904 902 892 893 906 911 901 897 899 891 876 873 879 885 887 888 888 888 889 889 889 889 890 890 891 892 892 891 892 892 892 892 893 893 893 893 893 892 892 892 891 891 891 890 890 889 889
882 881 881 882 883 882 883 883 882 883 884 882 883 892 900 900 900 902 900 896 900 908 912 911 910 909 911 913 912 910 909 910 912 911 907 904 904 903 902 905 905 895 889 900 912 908 899 895 888 877 873 877 882 885 887 887 887 887 887 887 888 888 889 889 890 890 890 890 890 891 891 891 891 892 891 891 891 890 890 890 890 889 889 888 888 888 887
882 883 882 882 883 883 883 884 884 887 889 888 886 889 895 898 901 904 903 905 911 913 909 910 912 910 909 911 912 911 911 910 911 912 909 906 906 906 904 903 900 895 898 909 910 898 890 884 874 868 872 879 882 885 886 885 885 886 886 886 887 887 887 888 888 888 888 889 889 889 889 890 890 890 890 890 889 889 889 889 888 888 887 887 886 886 885
883 884 882 883 885 884 881 882 885 886 888 892 894 891 888 892 900 904 901 901 906 910 910 913 913 909 908 911 913 911 910 911 910 909 908 908 909 906 898 893 896 901 904 904 900 895 892 885 874 871 878 882 881 883 885 884 884 885 885 885 886 886 886 887 887 886 887 887 887 887 888 888 888 889 888 888 888 887 887 887 887 886 886 885 885 884 884
883 884 883 882 885 884 881 884 889 888 888 893 897 896 892 892 893 896 899 903 908 910 912 916 917 912 911 913 912 910 913 913 909 907 909 910 906 901 897 898 903 906 903 898 895 891 884 876 871 872 876 876 877 880 882 882 883 884 884 884 885 885 885 885 885 885 885 885 885 886 886 886 886 887 887 886 886 886 885 885 885 884 884 884 883 882 882
882 886 884 880 883 889 890 887 887 888 890 895 897 894 893 893 895 899 906 911 912 910 912 916 917 914 912 912 911 912 915 913 907 909 915 910 898 896 904 907 902 898 895 892 885 873 863 862 866 870 871 872 875 878 880 881 881 882 882 883 883 883 883 884 883 883 884 884 884 884 884 884 885 885 884 884 885 884 883 883 883 883 882 882 881 880 879
883 888 885 879 884 893 894 889 889 892 896 899 900 900 902 904 905 908 911 912 912 912 915 917 917 915 914 915 912 911 915 914 909 910 914 908 898 901 909 906 896 891 886 877 867 861 861 864 868 869 870 873 876 877 878 880 880 880 881 881 881 881 882 882 882 882 882 882 882 882 882 882 882 883 883 883 882 882 882 882 881 881 880 880 879 878 877
884 886 883 881 884 887 888 891 898 901 903 905 908 911 913 911 907 906 910 913 914 913 913 914 913 911 913 916 913 910 913 913 906 906 912 910 900 896 896 891 887 890 886 873 862 859 861 864 866 868 872 874 875 875 877 878 878 879 879 879 879 880 880 879 880 880 880 880 881 880 880 881 881 881 881 880 880 880 880 879 879 879 879 878 877 877 876
884 883 884 888 892 894 898 904 902 897 899 908 913 913 911 908 904 905 910 913 914 912 913 915 912 908 909 914 913 910 910 908 904 905 910 907 896 891 890 884 876 874 873 871 867 863 862 865 869 871 872 873 874 874 876 876 875 876 877 877 877 878 878 877 878 878 878 879 879 878 878 879 879 878 879 879 878 878 878 877 877 877 876 876 875 875 874
884 884 887 890 890 893 903 907 897 888 892 902 905 905 907 905 903 905 910 912 913 914 914 913 911 909 912 913 907 901 903 909 909 904 899 893 892 896 895 883 869 861 861 865 867 864 862 867 871 870 870 873 874 873 873 874 874 874 875 875 875 876 876 876 876 877 876 877 877 877 877 877 877 877 877 877 876 876 876 875 875 875 874 874 874 873 871
885 885 889 892 890 889 894 894 886 882 887 890 892 897 903 901 899 902 908 911 911 909 907 908 911 911 908 902 896 893 900 909 911 904 895 894 898 898 885 869 860 859 858 860 863 864 864 868 870 868 868 870 871 870 871 872 871 872 873 873 873 874 874 874 875 875 875 875 875 875 875 875 875 875 875 874 874 874 873 872 872 873 872 871 871 871 869
884 884 891 898 900 898 896 892 889 889 892 893 895 900 901 899 900 905 908 908 906 904 904 909 911 905 896 894 898 901 903 904 901 894 889 889 892 887 871 858 856 858 858 859 862 863 865 867 867 866 866 867 867 867 868 869 869 870 871 871 871 872 872 872 873 873 873 873 873 873 873 874 874 874 873 873 872 872 871 870 870 870 870 869 869 869 868